Location: Newark
(51.3318°N, 0.0053°E)
Time: 20:17:15
(UTC+00:00)

M-CUBED/EXP-1 PRIME - Pass Details

Date: 06 July 2022
Orbit: 422 x 631 km, 101.7° (Epoch: 11 August)

Event Time Altitude Azimuth Distance (km) Brightness Sun altitude
Exits shadow 02:23:14 11° 243° (WSW) 1,497 ? -10.0°
Maximum altitude 02:24:26 13° 265° (W) 1,417 ? -9.9°
Drops below altitude 10° 02:26:05 10° 294° (WNW) 1,615 ? -9.7°
Sets 02:29:09 0° 323° (NW) 2,546 ? -9.5°
